SCP
-0 -0 0 -0 -0 -0 -0 -0 -0 -0 -0 0 0 -0 -0 -0 -0 -0 -0 -0 -0 -0 -0 0 0 0 0 0 0 0 0 0
0 -0 0 -0 0 0 -0 0 0 -1 -0 0 0 0 -0 -0 -0 -0 -0 -0 -0 -0 -0 0 0 0 0 0 -0 -0 0 0
-0 -0 0 -0 -0 0 -0 0 0 -0 -0 -0 0 -0 -0 -0 -0 -0 -0 -0 -0 -0 -0 -0 0 0 0 0 -0 -0 0 -0
-0 -0 0 -0 -0 0 -0 -0 -0 -1 -0 -0 -0 -0 -0 -0 -0 -0 -0 -0 -0 -0 -0 -0 -0 -0 0 -0 -0 0 -0 0
-0 -0 -0 -0 0 0 -0 0 0 -1 -0 -0 -0 -0 0 -0 -0 -0 -0 -0 -0 -0 -0 -0 -0 -0 -0 -0 -0 -0 0 0
-0 -0 0 -0 0 0 0 1 0 0 -0 -0 -0 -0 -0 -0 -0 -0 -0 -0 -0 -0 -0 -0 -0 -0 -0 0 0 0 0 0
0 -0 0 0 -0 0 0 0 0 0 -0 -0 -0 -0 -0 -0 -0 0 -0 -0 -0 -0 -0 -0 -0 -0 -0 -0 -0 0 -0 -0
-0 -0 0 0 0 0 0 0 0 0 -0 -0 -0 -0 -0 -0 -0 0 -0 -0 -0 -0 -0 -0 -0 -0 -0 -0 -0 -0 -0 -0
-0 -0 -0 0 0 0 0 0 0 0 -0 -0 -0 -0 -0 -0 -0 0 -0 0 0 0 0 0 0 -0 -0 0 -0 -0 0 0
0 0 -0 0 0 1 -0 1 1 0 0 -0 -0 -0 -0 -0 -0 -0 0 0 0 0 0 -0 -0 -0 -0 0 -0 0 0 0
0 0 0 0 0 0 0 0 0 0 -0 -0 -0 -0 -0 -0 -0 0 0 0 0 0 0 0 0 0 0 0 0 0 0 0
0 0 0 0 0 0 1 1 0 0 0 0 0 0 0 0 0 0 0 0 0 0 0 0 1 0 0 0 0 0 0 0
0 0 0 0 0 0 0 0 2 0 0 0 0 0 0 0 0 0 0 0 0 0 0 0 1 1 1 0 0 0 0 0
-0 0 0 0 0 0 1 2 1 1 0 0 0 0 0 0 0 0 0 1 0 0 1 1 1 1 1 1 1 0 0 0
-0 0 0 0 0 0 0 2 2 1 1 1 1 1 0 0 0 0 0 0 0 1 0 1 1 1 1 0 0 0 0 0
-0 -0 0 0 0 0 0 1 2 1 1 1 1 1 0 0 0 0 0 0 1 1 0 1 1 1 0 0 0 0 0 0
0 -0 0 0 0 0 1 1 1 1 1 1 1 1 1 1 0 0 0 1 1 0 1 1 0 0 0 0 0 0 0 0
0 0 0 0 0 0 1 1 1 1 2 1 1 1 1 1 0 0 0 1 0 0 0 0 0 0 0 0 0 0 0 0
0 0 0 0 0 0 0 1 1 2 1 1 0 1 1 1 0 0 0 0 0 0 0 0 0 0 0 0 0 0 0 0
0 0 0 0 0 0 0 0 1 1 1 1 -0 1 1 1 0 0 0 0 0 0 0 0 0 0 0 0 0 0 0 0
Wind_Speed_500mb
17 27 9 1 36 41 76 29 35 40 39 20 32 43 44 49 47 42 38 37 39 41 41 38 37 38 35 33 30 32 31 30
21 39 18 29 19 68 38 16 22 48 31 38 32 42 49 49 43 45 40 35 39 41 40 37 37 37 34 31 28 28 27 26
36 50 39 46 96 103 39 23 23 49 32 27 19 42 51 47 42 43 37 39 41 41 40 38 37 36 32 29 26 26 23 21
34 26 15 51 81 40 66 53 49 50 43 23 31 47 51 43 43 47 33 38 41 41 40 38 36 34 30 28 26 24 21 18
47 36 17 18 15 14 73 74 18 63 29 34 44 46 47 46 45 41 38 34 40 38 38 36 35 33 29 25 23 22 19 14
42 37 15 43 5 17 25 29 25 31 18 33 56 52 48 45 41 40 39 34 34 36 35 33 31 30 27 23 19 16 14 11
43 46 13 7 16 20 40 64 27 10 42 62 62 56 52 47 43 42 33 36 35 31 30 23 24 26 23 20 17 14 10 7
47 47 16 13 13 25 17 31 33 44 61 70 61 56 55 53 51 44 37 39 35 36 29 27 22 18 21 20 15 8 6 4
54 65 42 14 17 24 28 22 39 51 64 63 59 53 49 50 44 37 41 40 39 38 39 33 27 10 17 7 6 7 20 22
64 75 68 32 12 30 89 26 62 48 52 61 58 53 47 46 41 42 42 40 38 35 43 33 25 18 15 26 15 16 11 17
53 64 68 32 34 40 74 35 72 42 53 55 55 49 48 48 44 43 43 41 40 38 45 35 26 30 23 27 19 22 21 19
50 59 51 39 37 47 11 13 53 64 53 50 51 49 47 51 46 45 40 43 35 34 38 36 40 28 36 31 29 22 27 34
39 52 41 41 45 36 60 62 57 51 51 50 49 48 45 41 43 44 40 40 43 33 30 28 35 36 31 30 20 27 40 36
37 39 43 34 43 36 43 51 52 48 56 56 52 44 42 44 45 44 43 43 38 31 38 39 36 33 25 30 27 25 25 24
41 42 39 38 40 33 43 50 50 50 50 55 55 49 49 48 50 48 49 51 44 31 34 42 35 33 29 33 26 26 18 24
30 40 42 37 40 36 59 48 52 55 50 50 56 60 59 56 52 50 44 48 48 39 40 43 39 37 35 29 27 24 34 34
40 28 40 40 39 38 40 48 52 63 61 63 58 54 59 58 53 49 46 47 52 54 54 50 40 36 28 26 28 33 33 27
26 39 34 27 40 36 43 47 56 61 71 68 61 67 51 55 56 53 53 49 52 42 50 42 36 31 27 30 27 29 30 23
35 36 38 35 40 32 34 58 61 36 14 20 55 71 73 64 57 52 49 52 41 48 42 39 32 46 44 51 38 27 18 20
37 33 28 36 30 35 35 38 45 60 83 111 113 73 76 76 63 51 43 43 39 42 39 39 35 45 47 39 22 15 17 21
Wind_Direction_500mb
244 250 57 242 247 264 270 130 143 110 83 73 111 121 133 137 139 130 133 146 145 139 136 136 139 134 127 122 127 131 129 128
258 261 176 198 271 247 228 150 135 98 93 94 113 132 135 141 135 133 144 157 150 144 139 140 141 140 132 133 132 139 139 137
264 264 182 216 184 242 177 135 124 117 115 108 107 128 139 143 139 140 151 155 153 149 147 148 150 148 139 138 140 147 148 147
270 284 34 216 198 99 69 309 115 108 119 111 130 137 144 145 143 149 156 153 155 156 156 155 157 157 153 152 154 155 155 151
264 273 264 296 160 179 149 201 164 140 114 139 146 146 148 148 144 136 144 161 159 163 162 162 164 167 165 162 161 161 156 150
275 278 292 306 272 159 100 39 99 129 150 157 157 153 152 152 153 147 150 150 155 165 165 168 173 177 175 174 173 168 161 153
263 269 247 140 239 166 112 142 171 153 146 149 153 155 156 156 154 160 158 159 156 159 164 158 185 185 185 185 182 179 171 155
260 268 347 323 257 156 160 146 138 92 122 141 151 159 160 163 159 162 162 159 167 161 162 166 190 193 195 192 184 170 140 243
262 268 300 169 231 19 201 174 154 129 137 146 154 162 166 170 166 169 169 166 166 178 170 165 178 219 178 204 167 140 187 217
264 279 291 261 157 87 298 84 98 141 154 153 160 165 168 172 172 171 172 172 173 179 163 172 183 179 175 193 188 231 262 233
254 268 274 289 282 181 208 129 154 168 167 159 163 170 171 170 168 167 169 167 169 178 176 183 161 183 185 190 180 214 203 250
257 262 268 270 267 263 149 72 139 163 161 168 168 172 169 161 158 161 170 173 178 182 185 180 163 180 190 181 202 194 195 222
264 258 259 260 261 253 153 170 143 159 167 171 170 170 154 157 164 167 172 168 181 173 180 176 182 182 179 193 212 204 227 228
263 243 244 245 258 236 169 149 159 169 179 173 170 161 163 166 167 175 170 179 175 177 181 180 190 181 173 178 180 194 232 229
244 259 223 230 251 265 229 172 164 176 187 176 164 166 173 174 173 177 181 180 164 179 196 182 176 167 183 188 182 195 211 239
236 231 217 222 223 238 255 183 176 178 187 188 179 178 178 175 177 178 183 182 173 174 197 190 187 183 198 179 187 196 209 229
305 298 181 211 231 222 172 189 196 182 189 192 190 184 181 177 181 182 183 187 178 188 198 202 191 176 185 187 192 212 230 236
294 298 302 262 225 227 179 196 208 198 184 191 187 185 189 186 184 185 185 194 193 194 208 203 195 182 190 194 194 216 240 240
276 277 279 275 273 273 197 198 210 200 246 254 194 187 191 196 189 187 191 192 203 198 205 184 190 192 189 198 207 236 247 246
259 259 264 267 264 233 241 226 199 199 203 189 206 191 188 186 186 188 192 190 195 201 206 189 201 205 209 213 236 201 200 245
Wind_Speed_850mb
17 27 9 1 36 41 76 29 35 40 39 20 32 43 44 49 47 42 38 37 39 41 41 38 37 38 35 33 30 32 31 30
21 39 18 29 19 68 38 16 22 48 31 38 32 42 49 49 43 45 40 35 39 41 40 37 37 37 34 31 28 28 27 26
36 50 39 46 96 103 39 23 23 49 32 27 19 42 51 47 42 43 37 39 41 41 40 38 37 36 32 29 26 26 23 21
34 26 15 51 81 40 66 53 49 50 43 23 31 47 51 43 43 47 33 38 41 41 40 38 36 34 30 28 26 24 21 18
47 36 17 18 15 14 73 74 18 63 29 34 44 46 47 46 45 41 38 34 40 38 38 36 35 33 29 25 23 22 19 14
42 37 15 43 5 17 25 29 25 31 18 33 56 52 48 45 41 40 39 34 34 36 35 33 31 30 27 23 19 16 14 11
43 46 13 7 16 20 40 64 27 10 42 62 62 56 52 47 43 42 33 36 35 31 30 23 24 26 23 20 17 14 10 7
47 47 16 13 13 25 17 31 33 44 61 70 61 56 55 53 51 44 37 39 35 36 29 27 22 18 21 20 15 8 6 4
54 65 42 14 17 24 28 22 39 51 64 63 59 53 49 50 44 37 41 40 39 38 39 33 27 10 17 7 6 7 20 22
64 75 68 32 12 30 89 26 62 48 52 61 58 53 47 46 41 42 42 40 38 35 43 33 25 18 15 26 15 16 11 17
53 64 68 32 34 40 74 35 72 42 53 55 55 49 48 48 44 43 43 41 40 38 45 35 26 30 23 27 19 22 21 19
50 59 51 39 37 47 11 13 53 64 53 50 51 49 47 51 46 45 40 43 35 34 38 36 40 28 36 31 29 22 27 34
39 52 41 41 45 36 60 62 57 51 51 50 49 48 45 41 43 44 40 40 43 33 30 28 35 36 31 30 20 27 40 36
37 39 43 34 43 36 43 51 52 48 56 56 52 44 42 44 45 44 43 43 38 31 38 39 36 33 25 30 27 25 25 24
41 42 39 38 40 33 43 50 50 50 50 55 55 49 49 48 50 48 49 51 44 31 34 42 35 33 29 33 26 26 18 24
30 40 42 37 40 36 59 48 52 55 50 50 56 60 59 56 52 50 44 48 48 39 40 43 39 37 35 29 27 24 34 34
40 28 40 40 39 38 40 48 52 63 61 63 58 54 59 58 53 49 46 47 52 54 54 50 40 36 28 26 28 33 33 27
26 39 34 27 40 36 43 47 56 61 71 68 61 67 51 55 56 53 53 49 52 42 50 42 36 31 27 30 27 29 30 23
35 36 38 35 40 32 34 58 61 36 14 20 55 71 73 64 57 52 49 52 41 48 42 39 32 46 44 51 38 27 18 20
37 33 28 36 30 35 35 38 45 60 83 111 113 73 76 76 63 51 43 43 39 42 39 39 35 45 47 39 22 15 17 21
Wind_Direction_850mb
244 250 57 242 247 264 270 130 143 110 83 73 111 121 133 137 139 130 133 146 145 139 136 136 139 134 127 122 127 131 129 128
258 261 176 198 271 247 228 150 135 98 93 94 113 132 135 141 135 133 144 157 150 144 139 140 141 140 132 133 132 139 139 137
264 264 182 216 184 242 177 135 124 117 115 108 107 128 139 143 139 140 151 155 153 149 147 148 150 148 139 138 140 147 148 147
270 284 34 216 198 99 69 309 115 108 119 111 130 137 144 145 143 149 156 153 155 156 156 155 157 157 153 152 154 155 155 151
264 273 264 296 160 179 149 201 164 140 114 139 146 146 148 148 144 136 144 161 159 163 162 162 164 167 165 162 161 161 156 150
275 278 292 306 272 159 100 39 99 129 150 157 157 153 152 152 153 147 150 150 155 165 165 168 173 177 175 174 173 168 161 153
263 269 247 140 239 166 112 142 171 153 146 149 153 155 156 156 154 160 158 159 156 159 164 158 185 185 185 185 182 179 171 155
260 268 347 323 257 156 160 146 138 92 122 141 151 159 160 163 159 162 162 159 167 161 162 166 190 193 195 192 184 170 140 243
262 268 300 169 231 19 201 174 154 129 137 146 154 162 166 170 166 169 169 166 166 178 170 165 178 219 178 204 167 140 187 217
264 279 291 261 157 87 298 84 98 141 154 153 160 165 168 172 172 171 172 172 173 179 163 172 183 179 175 193 188 231 262 233
254 268 274 289 282 181 208 129 154 168 167 159 163 170 171 170 168 167 169 167 169 178 176 183 161 183 185 190 180 214 203 250
257 262 268 270 267 263 149 72 139 163 161 168 168 172 169 161 158 161 170 173 178 182 185 180 163 180 190 181 202 194 195 222
264 258 259 260 261 253 153 170 143 159 167 171 170 170 154 157 164 167 172 168 181 173 180 176 182 182 179 193 212 204 227 228
263 243 244 245 258 236 169 149 159 169 179 173 170 161 163 166 167 175 170 179 175 177 181 180 190 181 173 178 180 194 232 229
244 259 223 230 251 265 229 172 164 176 187 176 164 166 173 174 173 177 181 180 164 179 196 182 176 167 183 188 182 195 211 239
236 231 217 222 223 238 255 183 176 178 187 188 179 178 178 175 177 178 183 182 173 174 197 190 187 183 198 179 187 196 209 229
305 298 181 211 231 222 172 189 196 182 189 192 190 184 181 177 181 182 183 187 178 188 198 202 191 176 185 187 192 212 230 236
294 298 302 262 225 227 179 196 208 198 184 191 187 185 189 186 184 185 185 194 193 194 208 203 195 182 190 194 194 216 240 240
276 277 279 275 273 273 197 198 210 200 246 254 194 187 191 196 189 187 191 192 203 198 205 184 190 192 189 198 207 236 247 246
259 259 264 267 264 233 241 226 199 199 203 189 206 191 188 186 186 188 192 190 195 201 206 189 201 205 209 213 236 201 200 245